Location: Chantarel
(45.1638°N, 1.7873°E)
Time: 08:09:55
(UTC+00:00)

USA 306 - Pass Details

Date: 03 March 2021
Orbit: 564 x 577 km, 54.0° (Epoch: 10 April)

Event Time Altitude Azimuth Distance (km) Brightness Sun altitude
Rises 18:18:12 0° 276° (W) 2,783 8.7 -7.0°
Reaches altitude 10° 18:20:43 10° 288° (WNW) 1,883 6.9 -7.4°
Maximum altitude 18:24:26 28° 348° (NNW) 1,098 4.5 -8.1°
Drops below altitude 10° 18:28:08 10° 48° (NE) 1,878 5.1 -8.8°
Enters shadow 18:28:59 - 54° (NE) 2,166 5.4 -8.9°
